ONEWEB-0366 (49292 NORAD) Tracking and Keplerian Element Data

This shows tracking and keplerian element data for the satellite.

Feedback or suggestion? Click here.




ElementValue
Catalog49292
NameONEWEB-0366
Epoch Orbit353
Epoch Day339.91667824
Epoch Year2021
RAAN275.0383
Inclination87.2013
Eccentricity0.0010816
Argument of Perigee76.0112
Mean Anonmoly191.4676
Mean Motion14.88405992
Decay Rate-0.00053258
L11 49292U 21090P 21339.91667824 -.00053258 00000+0 -57957-2 0 9998
L22 49292 87.2013 275.0383 0010816 76.0112 191.4676 14.88405992 3535

Live tracking and technical data element details for ONEWEB-0366 (NORAD 49292). ONEWEB-0366 can be tracked NOW for your location showing map with azimuth and elevation plus other details from your city location.

Track the satellite on the map from your city or location and see movement details for azimuth, elevation, latitude, longitude, range, height, and movement on the map or in text.







IsCatalogInMostPopularTable: catalog: 49292, numindb: 8
Update: records affected: 1



GetName: 49292 ONEWEB-0366

Hit Count: updated at: Mon, 06 Dec 2021 14:05:47 GMT